Regional Weather Roundup
Issued by NWS Charleston, SC

Home | Current Version | Previous Version | Text Only | Print | Product List | Glossary On
Versions: 1 2 3 4 5 6 7 8 9 10 11 12 13 14 15 16 17 18 19 20 21 22 23 24 25 26 27 28 29 30 31 32 33 34 35 36 37 38 39 40 41 42 43 44 45 46 47 48 49 50
216
ASUS42 KCHS 011928
RWRCHS

REGIONAL WEATHER ROUNDUP
NATIONAL WEATHER SERVICE CHARLESTON SC
300 PM EDT SAT OCT 01 2016

NOTE: "FAIR" INDICATES FEW OR NO CLOUDS BELOW 12,000 FEET WITH NO
SIGNIFICANT WEATHER AND/OR OBSTRUCTIONS TO VISIBILITY.

NOT ALL STATIONS ARE QUALITY CONTROLLED. USE DATA WITH CAUTION...
ESPECIALLY DEWPOINT OBSERVATIONS.

SCZ027-030-031-034>040-042>050-012000-
...SOUTHEAST SOUTH CAROLINA...

CITY           SKY/WX    TMP DP  RH WIND       PRES   REMARKS
N CHARLESTON   MOSUNNY   86  67  52 SE10      30.02F
WATERFRONT PRK   N/A     82  75  79 E6        30.01F
MOUNT PLEASANT FAIR      82  73  74 SE7       30.02F
JOHNS ISLAND   MOCLDY    84  73  70 VRB5      30.02F HX  91
PINOPOLIS        N/A     81  68  65 VRB2      29.96F
MONCKS CORNER  FAIR      84  64  51 SW6       30.02S
SUMMERVILLE    FAIR      86  68  54 SW6       30.03S
BEAUFORT MCAS  MOSUNNY   85  68  56 CALM      30.02F
BEAUFORT ARPT  FAIR      82  68  61 CALM      30.01F
HILTON HEAD IS MOSUNNY   88  72  58 E6        30.03F HX  94
WALTERBORO     CLEAR     86  61  42 CALM      30.03F
ALLENDALE      FAIR      82  54  36 VRB3      30.02F

...SOUTHERN MIDLANDS AND PEE DEE...

CITY           SKY/WX    TMP DP  RH WIND       PRES   REMARKS
GEORGETOWN     MOCLDY    82  72  69 S8        30.03F
KINGSTREE      MOCLDY    86  63  45 CALM      30.02F
ORANGEBURG     SUNNY     81  56  42 S9        30.04F
BARNWELL       NOT AVBL
AIKEN          FAIR      79  46  31 W5        30.08S
MANNING        FAIR      81  63  54 S6        30.03F
COLUMBIA       MOSUNNY   84  50  30 NW5       30.03F
SUMTER         SUNNY     84  54  35 SW9       30.02F
FLORENCE       PTSUNNY   83  63  50 S7        30.03F
MYRTLE BEACH   PTSUNNY   84  64  51 SE12      30.05F
N MYRTLE BEACH PTSUNNY   81  72  74 SE10      30.03F

$$

GAZ063-065-086>088-099>101-113>116-118-119-134>141-150-012000-
...SOUTHEAST GEORGIA...

CITY           SKY/WX    TMP DP  RH WIND       PRES   REMARKS
SAVANNAH ARPT  MOSUNNY   85  55  35 VRB5      30.03F
HUNTER AAF     SUNNY     86  67  52 SE8       30.00F
FORT STEWART   SUNNY     85  53  34 CALM      30.01F
STATESBORO     SUNNY     84  56  37 S6        30.03F
SYLVANIA       NOT AVBL
CLAXTON        FAIR      84  55  36 E3        30.03F

...CSRA...CENTRAL AND FAR SOUTHEAST GEORGIA...

CITY           SKY/WX    TMP DP  RH WIND       PRES   REMARKS
THOMSON        SUNNY     83  49  31 CALM      30.08S
AUGUSTA-BUSH   SUNNY     83  49  30 VRB5      30.03F
AUGUSTA-DANIEL SUNNY     82  46  28 CALM      30.05F
SWAINSBORO     FAIR      84  46  26 NE3       30.04F
VIDALIA        SUNNY     84  55  37 CALM      30.04F
EASTMAN        FAIR      85  22  10 CALM      30.06F
HAZLEHURST     FAIR      85  52  31 NE3       30.02F
ALMA           SUNNY     84  50  30 VRB3      30.03F
WAYCROSS       SUNNY     89  51  26 S7        30.02F
JESUP          FAIR      86  59  39 CALM      30.02F
BAXLEY         FAIR      84  52  32 E3        30.03F
BRUNSWICK      SUNNY     88  61  40 S5        30.01F
SAINT SIMONS   SUNNY     84  63  49 E6        30.02F

$$

SCZ027-028-034-036>038-045-046-048>050-GAZ119-141-012000-
...LAKE AND SUPPLEMENTAL COASTAL OBSERVATIONS...

STATION/POSITION TIME  TEMP    WIND        PRES    WAVE   SWELL
                       AIR SEA DIR/SP/G            HT/PER HT/PER/DIR
                 (UTC) (F)     (DEG/KT/KT) (MB)    (FT/S) (FT/S/D)
WINYAH BAY       1845   80     140/  7     1016.0F
LAKE MURRAY      1920   80      CALM  /  6 1016.6
ACE BASIN NERRS  1845   84     140/  2     1017.0S
FORT PULASKI     1900   81 81   90/  6/  7 1017.0
SAPELO ISLAND    1900   85     240/  3     1016.0

$$

ANZ835-935-AMZ111-154-330-350-352-354-370-450-454-472-012000-
...C-MAN AND BUOY OBSERVATIONS...

STATION/POSITION TIME  TEMP    WIND        PRES    WAVE   SWELL
                       AIR SEA DIR/SP/G            HT/PER HT/PER/DIR
                 (UTC) (F)     (DEG/KT/KT) (MB)    (FT/S) (FT/S/D)
BUOY 41004       1850   81 82  150/ 12/ 14 1015.9F   3/11   2/ 80/11
BUOY 41008       1850   79 83  350/  8/ 10 1016.5F   2/11   2/ 50/11
FOLLY BEACH CMAN 1900   80     110/  6/  7 1017.0F
CAPERS NEARSHORE 1808   80 81  100/  6/ 10 1016.9F
FRIPP NEARSHORE  1808   82 81   60/  6/  8 1017.2F


STATION/POSITION TIME  TEMP    WIND        PRES    WAVE   SWELL
                       AIR SEA DIR/SP/G            HT/PER HT/PER/DIR
                 (UTC) (F)     (DEG/KT/KT) (MB)    (FT/S) (FT/S/D)
5E ST. MARYS GA  1901      83                N/A     2/13   2/100/13
FRYING PAN BUOY  1910   79 82  140/ 16/ 17 1017.0
BUOY 41025       1850   80 83  210/ 14/ 16 1017.8F   6/11   5/ 60/11
CAPE LOOKOUT NC  1900   80     190/ 10/ 12 1017.3F
BUOY 41002       1850   79 83   80/  6/  8 1019.0R   6/11   5/ 70/11
BUOY 41010       NOT AVBL
ST AUGUSTINE FL  1900   81 84   50/  7/  8 1017.2F


$$




USA.gov is the U.S. government's official web portal to all federal, state and local government web resources and services.